星链-31279 (STARLINK-31279 )

导读 | 星芒AI

STARLINK-31279 是 SpaceX Starlink 项目中的一颗低轨卫星,属于其第二代卫星群(v1.5)。该卫星于2023年发射,旨在为全球提供高速互联网服务。它运行在约550公里高的近地轨道,具备先进通信技术和激光链路,以提升网络性能和减少延迟。Starlink 卫星群致力于为偏远地区提供稳定网络连接,支持全球通信基础设施的扩展。

基本信息
目录编号:
59086
目录名称:
STARLINK-31279
国际标识:
2024-041N
轨道中心:
EARTH
卫星名称:
星链-31279
卫星全名:
星链-31279 (STARLINK-31279 )
卫星状态:
在轨 (已飞行613 天)
发射日期:
2024-02-29 UTC
国别 :
美国 (US)
星等 :
--
轨道信息
数据来源 国际轨道数据
星历时间: 2025-11-02T16:34:15+0800
18小时前
查看轨道信息
半长轴: 6861.187km
偏心率: 0.0000961
轨道倾角: 43.002°
近地点辐角 282.884°
升交点赤经 310.148°
平近点角 77.191°
近地点: 482.392km
远地点: 483.712km
周期: 94.267分钟
每日圈数: 15.275798
详细信息
固有亮度:
5
最大亮度:
0.3
卫星平台:
Starlink v2.0 mini
覆盖范围:
全球
运营商:
太空探索技术公司
运营商所在国:
美国
制造商(研发单位):
太空探索技术公司
制造商所在国:
美国
使用方式:
暂无
卫星简介
星链(Starlink)计划是由太空探索技术公司(SpaceX)提出的一个巨型低轨卫星互联网星座项目,计划在2019年至2024年间在太空搭建由约1.2万颗卫星组成的“星链”网络,其中1584颗将部署在地球上空550千米处的近地轨道,并从2020年开始工作。该卫星仍在工作。
2D轨道图
3D轨道图
轨道高度分析图
轨道倾角分析图
轨道综合分析图
查看轨道综合分析图